Probability
0 0 0 0 0 0 0 0 0 0 0 3 3 6 6 3 3 10 16 23 26 23 29 32 39 35 52 71 68 71 71 74 74 74 71 71 61 65 74 61 65 68 61 61
0 0 0 0 0 0 0 0 0 0 0 0 0 6 6 6 10 13 6 16 29 26 35 48 45 42 52 71 71 77 81 74 81 77 77 74 65 65 65 65 74 68 68 61
0 0 0 0 0 0 0 0 0 0 0 0 3 6 6 6 6 16 13 16 23 35 42 48 45 48 61 71 65 65 74 74 77 77 71 68 68 68 65 61 65 68 68 65
0 0 0 0 0 0 0 0 0 0 0 0 0 3 10 3 10 10 16 23 16 32 35 45 48 52 48 65 65 71 77 77 77 74 71 68 65 65 65 71 68 65 65 65
0 0 0 0 0 0 0 0 0 0 0 0 0 0 10 10 13 13 19 23 23 29 32 42 52 55 48 55 61 71 81 81 77 74 71 68 65 61 68 68 71 74 74 74
0 0 0 0 0 0 0 0 0 0 0 0 0 0 6 13 19 23 23 23 29 29 39 39 42 58 68 58 68 71 84 81 81 71 71 71 61 65 68 68 74 68 65 61
0 0 0 0 0 0 0 0 0 0 0 0 0 0 3 13 13 19 23 23 29 32 35 45 48 58 65 68 68 71 77 84 84 81 77 74 68 71 74 71 71 77 61 61
0 0 0 0 0 0 0 0 0 0 0 0 0 0 3 3 19 26 26 19 29 29 35 48 42 48 55 65 65 68 77 81 81 84 81 81 77 74 68 71 68 68 68 58
0 0 0 0 0 0 0 0 0 0 0 0 0 3 6 13 13 13 23 23 35 39 35 42 39 48 58 68 61 65 74 74 77 74 81 77 74 77 68 71 74 68 65 58
0 0 0 0 0 0 0 0 0 3 13 0 0 0 3 13 16 16 19 29 35 35 35 39 35 42 52 65 65 71 81 74 77 77 74 71 71 68 68 68 68 71 68 65
0 0 0 0 0 0 0 0 3 3 3 3 0 6 6 19 13 10 19 26 35 35 42 45 48 45 48 52 65 61 77 71 71 74 74 74 71 71 68 65 65 61 61 65
0 0 0 0 0 0 0 0 0 6 3 0 0 6 6 13 16 16 23 26 39 45 48 45 45 48 48 48 55 65 68 74 77 74 74 74 68 68 65 61 61 55 55 55
0 0 0 0 0 0 0 0 0 0 3 0 0 6 16 19 19 23 32 42 45 55 39 52 48 45 48 58 61 58 68 74 74 74 71 71 61 61 61 58 58 52 52 52
0 0 0 0 0 0 0 0 0 0 0 0 3 10 13 16 19 19 32 39 42 55 52 55 55 58 61 68 74 65 58 58 68 77 68 65 55 58 58 55 52 52 48 52
0 0 0 0 0 0 0 0 0 0 0 0 10 16 13 10 13 19 29 35 35 48 55 55 61 61 61 68 65 65 65 61 61 58 61 55 61 52 52 52 52 52 52 52
0 0 0 0 0 0 0 0 0 0 3 6 13 13 10 13 13 26 26 32 39 45 55 58 55 52 52 58 68 61 58 68 65 58 55 61 58 61 45 52 52 52 48 48
0 0 0 0 0 0 0 0 3 3 6 6 16 23 10 13 26 26 35 42 45 52 58 58 48 52 52 52 55 61 65 61 65 58 61 61 65 55 52 39 42 42 45 48
0 0 0 0 3 0 3 3 6 6 3 10 16 10 16 26 26 32 35 45 45 52 58 55 52 48 48 55 55 58 58 55 61 55 55 55 52 55 55 42 42 52 52 52
0 3 0 3 0 3 3 3 3 3 3 13 13 10 10 10 29 26 29 32 45 45 58 58 55 48 52 52 55 58 55 52 52 52 55 45 48 48 55 48 48 52 55 52
0 6 0 0 0 0 0 0 3 3 3 13 10 13 19 16 16 23 29 32 42 42 48 55 45 45 48 48 52 48 48 45 42 48 48 48 48 48 52 55 48 48 48 52
0 0 0 0 0 0 0 0 0 0 13 16 16 16 19 26 26 35 39 45 39 55 48 42 42 45 45 39 45 52 45 42 45 42 42 45 45 48 55 58 55 55 45 35
0 0 3 3 6 6 3 0 6 19 23 16 16 23 29 39 42 45 42 45 48 45 45 45 48 48 42 39 45 48 45 42 42 45 45 42 42 42 45 55 48 52 45 42
3 3 6 6 10 10 16 16 10 10 10 16 23 26 29 39 42 45 45 45 35 39 45 42 42 45 45 48 52 45 52 42 39 39 39 45 39 39 45 48 48 45 42 35
6 6 10 10 10 3 6 6 10 13 10 13 19 23 29 35 42 42 48 39 39 35 42 42 42 45 52 52 45 39 48 45 42 39 42 39 35 39 35 29 23 26 19 23
6 6 16 13 13 3 3 3 3 6 6 19 23 26 32 39 39 45 45 39 35 42 42 39 42 45 42 42 42 29 42 45 35 32 26 26 26 26 35 26 23 16 16 13
0 3 13 16 13 16 13 6 6 6 10 16 19 26 29 29 35 39 42 39 35 35 35 35 32 32 35 32 32 39 39 39 39 26 23 23 23 23 16 13 3 0 0 0
Height
5904 5907 5908 5910 5911 5913 5915 5917 5917 5918 5918 5919 5918 5917 5917 5916 5915 5914 5913 5912 5911 5910 5909 5908 5907 5905 5904 5903 5902 5902 5900 5899 5899 5898 5897 5897 5896 5896 5895 5895 5895 5895 5895 5895
5903 5905 5907 5909 5911 5913 5915 5916 5917 5917 5918 5917 5916 5916 5916 5916 5915 5914 5913 5912 5911 5910 5909 5908 5907 5905 5904 5903 5902 5901 5900 5899 5898 5897 5897 5896 5896 5895 5895 5894 5894 5894 5894 5894
5901 5905 5906 5908 5910 5912 5913 5915 5916 5917 5916 5916 5916 5915 5914 5915 5915 5914 5913 5911 5911 5909 5908 5908 5907 5905 5904 5903 5902 5901 5900 5899 5898 5897 5896 5895 5895 5894 5894 5894 5893 5893 5892 5892
5899 5902 5904 5907 5908 5910 5912 5913 5914 5915 5915 5914 5915 5913 5913 5913 5913 5912 5912 5911 5910 5909 5908 5907 5906 5905 5904 5902 5901 5900 5899 5898 5897 5897 5896 5895 5894 5894 5893 5893 5892 5891 5891 5891
5897 5899 5902 5904 5907 5908 5909 5911 5911 5912 5912 5912 5913 5912 5911 5910 5910 5911 5910 5909 5908 5907 5907 5906 5905 5904 5902 5901 5900 5899 5898 5898 5897 5896 5895 5895 5894 5893 5893 5892 5891 5890 5890 5890
5895 5897 5899 5902 5904 5905 5907 5909 5909 5909 5909 5910 5910 5911 5909 5908 5908 5908 5908 5907 5907 5906 5905 5904 5903 5902 5901 5900 5899 5898 5897 5897 5896 5895 5895 5894 5893 5892 5892 5891 5890 5889 5889 5889
5892 5894 5897 5898 5900 5903 5905 5907 5907 5907 5907 5908 5908 5909 5908 5907 5907 5907 5907 5905 5905 5904 5903 5902 5901 5900 5900 5899 5898 5897 5896 5895 5895 5894 5893 5893 5892 5891 5890 5889 5888 5888 5887 5887
5887 5890 5893 5895 5897 5900 5901 5904 5905 5906 5907 5907 5905 5905 5906 5905 5904 5903 5904 5903 5902 5901 5900 5899 5899 5898 5897 5896 5895 5895 5894 5894 5893 5892 5892 5891 5890 5890 5889 5888 5887 5886 5886 5885
5886 5888 5890 5891 5895 5896 5898 5900 5902 5903 5904 5904 5902 5901 5900 5900 5900 5901 5901 5900 5899 5898 5898 5897 5896 5896 5895 5894 5894 5893 5892 5892 5891 5890 5889 5889 5888 5888 5887 5887 5886 5885 5884 5884
5883 5885 5887 5887 5891 5892 5895 5897 5899 5900 5901 5901 5900 5899 5898 5898 5897 5896 5896 5896 5895 5895 5895 5894 5894 5893 5893 5892 5891 5890 5890 5889 5888 5888 5887 5887 5886 5885 5884 5884 5884 5883 5882 5881
5880 5882 5884 5885 5886 5888 5891 5893 5894 5896 5897 5898 5898 5899 5895 5894 5894 5893 5892 5893 5892 5891 5890 5891 5891 5890 5890 5889 5888 5888 5887 5886 5885 5885 5884 5884 5884 5882 5882 5881 5881 5881 5880 5879
5874 5877 5879 5882 5883 5884 5887 5889 5890 5892 5892 5893 5894 5896 5892 5892 5891 5890 5888 5888 5888 5888 5887 5887 5887 5887 5886 5886 5885 5885 5884 5883 5882 5882 5881 5881 5880 5879 5879 5878 5878 5877 5877 5876
5869 5872 5875 5878 5881 5881 5882 5884 5886 5888 5889 5890 5891 5891 5887 5887 5887 5885 5884 5884 5884 5884 5884 5883 5883 5882 5882 5882 5882 5881 5880 5880 5878 5878 5878 5878 5877 5876 5875 5875 5874 5874 5873 5872
5863 5866 5869 5872 5874 5876 5878 5880 5882 5884 5885 5885 5886 5885 5883 5883 5882 5881 5880 5880 5880 5880 5880 5880 5879 5878 5878 5878 5878 5877 5877 5876 5875 5875 5874 5873 5873 5872 5872 5871 5870 5869 5868 5867
5856 5859 5862 5865 5869 5871 5873 5875 5876 5878 5879 5880 5880 5879 5879 5878 5877 5876 5876 5876 5876 5876 5876 5876 5875 5874 5874 5874 5873 5873 5872 5872 5871 5871 5870 5869 5869 5868 5867 5867 5866 5864 5863 5862
5849 5853 5856 5859 5862 5864 5866 5868 5870 5872 5874 5875 5875 5874 5874 5871 5871 5871 5871 5871 5871 5871 5871 5871 5870 5870 5869 5869 5868 5868 5868 5867 5867 5866 5866 5865 5864 5863 5863 5862 5860 5859 5858 5857
5843 5846 5849 5852 5856 5857 5859 5861 5864 5865 5867 5868 5868 5868 5867 5867 5866 5866 5866 5866 5866 5866 5866 5866 5865 5865 5864 5863 5863 5863 5862 5862 5862 5861 5860 5860 5859 5858 5857 5856 5855 5854 5852 5851
5837 5839 5842 5845 5849 5850 5855 5856 5857 5858 5859 5861 5862 5861 5860 5861 5861 5860 5861 5860 5860 5860 5860 5860 5860 5859 5859 5858 5858 5857 5857 5856 5856 5856 5855 5854 5853 5853 5852 5851 5850 5848 5847 5845
5830 5832 5835 5838 5840 5842 5846 5848 5849 5852 5852 5853 5854 5854 5854 5853 5854 5854 5854 5854 5854 5854 5854 5854 5854 5853 5853 5852 5852 5851 5851 5850 5850 5850 5849 5848 5848 5847 5846 5845 5844 5842 5840 5839
5823 5825 5828 5831 5833 5835 5840 5841 5841 5845 5845 5845 5846 5847 5847 5847 5848 5848 5848 5848 5847 5846 5846 5846 5847 5847 5846 5845 5845 5845 5844 5844 5844 5843 5843 5842 5841 5840 5839 5838 5837 5835 5834 5832
5815 5817 5820 5824 5826 5828 5832 5832 5835 5838 5838 5838 5839 5840 5839 5838 5840 5840 5840 5840 5840 5840 5840 5840 5840 5840 5839 5838 5838 5838 5838 5838 5837 5836 5835 5834 5834 5833 5832 5831 5830 5828 5827 5825
5808 5811 5814 5816 5819 5823 5823 5825 5827 5828 5829 5831 5832 5833 5832 5832 5832 5833 5832 5833 5833 5833 5833 5833 5833 5832 5832 5831 5831 5832 5831 5830 5830 5829 5828 5827 5826 5825 5825 5824 5823 5821 5819 5817
5800 5804 5806 5809 5813 5814 5816 5817 5818 5820 5822 5823 5824 5825 5825 5825 5825 5825 5826 5826 5826 5825 5825 5825 5825 5825 5824 5824 5824 5824 5823 5822 5822 5821 5820 5819 5819 5818 5817 5816 5815 5813 5811 5809
5792 5795 5797 5800 5803 5805 5807 5809 5810 5812 5813 5815 5816 5817 5818 5818 5818 5818 5818 5818 5818 5818 5817 5817 5816 5816 5816 5816 5816 5815 5815 5814 5814 5813 5812 5811 5810 5810 5809 5808 5806 5804 5803 5801
5783 5786 5788 5791 5795 5797 5799 5801 5802 5804 5806 5807 5809 5810 5810 5810 5810 5810 5810 5810 5810 5809 5809 5808 5808 5808 5807 5807 5807 5807 5806 5806 5805 5804 5803 5802 5802 5801 5800 5798 5797 5795 5794 5792
5774 5777 5779 5782 5786 5789 5790 5792 5794 5797 5798 5799 5801 5801 5802 5802 5802 5802 5802 5802 5802 5801 5801 5800 5799 5799 5799 5799 5798 5798 5797 5797 5796 5795 5794 5793 5792 5791 5790 5789 5787 5786 5784 5783
Wind_Speed
11 10 9 7 5 4 3 4 6 6 5 5 6 6 5 6 7 7 7 7 8 8 8 9 9 10 9 9 9 9 9 8 7 7 6 6 6 7 7 7 7 8 8 8
13 11 8 8 8 8 7 7 8 7 6 6 7 8 7 6 7 8 8 8 8 8 9 10 10 10 10 10 10 10 10 8 7 7 7 7 7 7 8 8 8 8 8 8
12 10 11 11 11 11 10 9 7 8 9 8 8 8 8 7 8 7 9 9 9 10 10 10 10 10 10 11 10 10 10 9 8 7 7 8 8 8 9 8 9 8 8 7
13 13 13 12 13 12 11 11 10 10 10 10 9 10 10 8 9 9 8 10 11 10 11 11 10 10 11 11 11 10 10 10 9 8 8 8 8 8 8 8 8 8 6 6
16 16 14 14 14 14 12 12 12 12 13 12 11 11 11 11 11 11 11 12 12 12 12 12 11 11 11 12 12 11 11 11 10 9 9 9 8 8 8 9 8 8 7 6
16 15 15 15 14 14 13 13 13 12 11 12 11 10 12 12 12 11 12 14 14 14 14 14 13 12 12 13 13 12 11 11 11 10 10 9 9 9 9 8 8 7 7 7
17 17 16 16 14 14 14 13 13 12 11 11 11 12 12 12 13 12 14 15 15 15 15 15 15 13 13 13 13 13 12 11 11 11 11 11 10 10 10 9 8 8 8 8
18 18 17 17 15 15 14 13 14 12 12 13 13 11 13 14 15 15 15 16 17 16 15 14 15 15 15 14 14 14 13 12 12 12 12 11 11 11 10 10 10 9 9 10
16 15 15 16 15 14 14 14 13 13 13 15 14 11 11 14 15 15 15 16 18 17 16 15 16 16 15 15 14 14 14 14 13 13 12 12 12 12 11 10 10 10 10 11
16 15 16 17 16 16 17 15 15 15 15 15 15 13 12 15 16 17 16 16 18 18 16 15 16 16 15 15 15 14 15 15 14 14 14 13 13 13 12 12 12 12 12 12
20 19 17 17 18 17 18 17 17 17 16 15 16 16 16 17 18 18 17 18 19 18 18 18 17 16 15 15 15 15 16 15 15 15 14 15 15 15 15 14 13 13 13 14
23 23 21 19 18 18 18 18 18 18 17 16 17 17 16 18 19 21 20 20 20 19 19 19 18 17 17 17 16 16 17 17 16 16 16 17 17 16 15 15 15 15 15 15
25 25 23 21 20 20 20 19 19 18 18 18 18 20 18 20 21 21 20 20 20 20 20 20 19 18 18 18 17 18 18 18 17 17 18 18 18 17 17 17 17 17 17 17
27 26 25 23 21 21 21 21 21 20 20 20 20 21 20 20 20 22 22 21 20 21 20 21 20 20 19 19 19 19 19 19 18 19 19 18 18 18 18 18 18 18 19 19
28 28 28 26 24 23 22 22 22 23 22 21 21 22 22 20 22 25 24 23 23 21 21 21 21 21 21 20 20 20 20 20 20 20 20 20 19 19 19 20 21 21 21 22
29 28 28 28 26 25 24 22 22 24 23 24 24 24 23 22 23 25 25 26 25 24 23 23 23 22 22 22 22 22 22 22 22 22 21 21 21 20 21 21 22 22 22 23
29 29 29 28 26 26 26 25 24 24 24 24 26 26 26 26 26 25 26 27 26 26 25 24 24 24 24 23 24 23 23 23 23 23 23 22 22 22 22 22 23 23 24 25
29 30 30 29 27 28 27 25 25 25 26 26 25 26 25 26 27 28 26 27 27 26 25 24 24 24 24 24 24 23 24 23 23 23 23 23 23 23 23 24 25 25 25 26
29 29 29 29 28 28 27 25 25 25 27 26 27 27 26 27 28 28 28 28 27 26 25 24 25 25 24 24 24 24 24 25 25 25 25 25 25 25 25 25 26 26 27 28
30 30 29 29 29 29 28 27 26 24 27 27 28 28 28 29 30 30 29 29 28 27 26 25 25 26 25 25 25 24 24 24 25 25 26 26 26 26 26 27 27 28 28 28
29 29 29 29 30 28 27 28 27 27 27 27 28 28 28 29 29 29 29 29 28 27 27 27 26 26 26 26 25 25 25 25 26 27 27 27 27 27 27 28 28 28 29 29
30 30 31 29 29 29 28 27 28 27 27 28 28 28 28 28 28 28 28 29 29 28 28 27 27 26 27 27 27 27 27 28 28 28 28 28 28 29 29 28 29 29 30 30
32 32 31 31 31 30 29 30 31 30 30 29 29 29 28 28 29 29 29 30 30 29 29 29 28 27 28 29 29 29 29 29 29 29 29 30 30 30 30 30 31 31 31 31
34 34 34 33 32 32 31 31 31 32 31 31 31 31 30 30 31 30 30 30 30 30 30 30 30 30 30 30 30 30 30 30 30 30 31 31 32 31 31 31 32 32 33 32
34 34 33 33 33 34 33 33 33 33 31 31 31 31 31 31 31 31 30 29 30 30 30 30 30 30 31 31 31 31 31 31 31 31 32 32 32 33 32 33 33 33 33 33
32 31 32 32 32 34 34 34 33 32 32 31 31 31 32 31 32 32 32 31 30 31 31 31 30 30 31 31 31 31 31 31 31 31 31 31 32 33 33 33 34 34 33 33
Wind_Direction
200 211 212 217 231 225 228 248 268 283 292 297 294 296 311 326 328 333 333 333 336 338 340 346 346 344 342 339 336 335 331 324 321 324 330 331 335 332 325 318 316 315 310 312
216 216 224 220 229 227 231 239 256 277 280 278 277 283 284 299 310 319 321 322 326 334 334 335 336 336 337 336 334 334 333 329 325 327 332 330 326 325 325 320 316 315 310 307
219 219 227 222 226 230 231 239 249 263 266 265 272 280 279 295 298 306 313 319 316 322 326 326 327 330 331 330 330 331 332 331 331 331 332 336 333 327 324 326 324 316 311 305
223 221 227 228 231 232 236 239 246 256 262 268 270 272 282 288 293 294 299 310 312 317 320 321 322 323 324 326 326 325 326 328 330 328 326 329 329 326 325 324 323 319 317 311
221 221 226 232 232 232 234 242 244 248 256 259 263 273 275 283 289 299 303 305 309 311 314 313 314 315 316 321 321 321 320 323 327 326 323 323 325 325 324 324 319 319 319 316
222 226 230 233 234 238 232 240 249 255 258 264 263 268 277 281 287 290 297 299 304 306 308 307 307 307 309 312 313 313 314 316 321 322 320 319 321 320 319 317 315 320 322 316
224 227 230 234 233 238 237 243 251 259 266 265 263 260 268 274 278 280 287 291 297 301 303 302 302 304 306 307 308 308 307 308 310 311 310 312 315 315 313 311 313 319 320 316
230 228 229 235 235 232 238 237 239 247 257 262 263 262 271 271 276 280 281 287 291 294 295 297 299 300 301 303 304 304 302 301 303 306 304 304 306 310 309 309 312 315 311 310
237 238 236 240 241 236 240 238 239 250 256 264 269 266 262 266 275 281 279 283 290 292 291 296 298 299 298 298 299 300 300 298 299 301 300 296 301 304 304 301 305 308 308 306
231 240 242 236 237 237 237 237 237 240 252 261 267 266 271 276 279 281 279 280 287 292 291 292 294 297 297 297 297 297 299 297 295 295 295 293 297 299 299 297 298 301 304 304
227 235 239 241 238 237 237 234 239 241 244 256 269 268 273 276 276 278 281 284 285 288 291 292 292 294 293 292 293 295 295 295 294 293 291 291 294 294 295 296 296 300 300 302
229 231 236 242 244 244 240 242 246 248 249 249 260 262 267 272 273 275 275 281 283 285 288 290 288 291 290 291 291 292 293 292 290 289 288 290 293 294 296 298 297 297 298 298
230 231 234 239 239 241 241 242 242 246 251 251 257 263 259 262 268 273 276 281 280 281 285 289 289 287 286 287 288 288 290 292 293 291 289 290 293 295 294 294 295 295 295 296
231 231 232 237 238 242 246 247 246 246 249 253 253 260 262 263 267 271 275 281 284 282 284 285 285 285 285 286 286 286 286 289 290 290 291 291 292 293 294 295 295 296 295 296
233 233 234 235 237 241 246 244 245 248 249 253 259 261 265 266 268 272 275 281 283 283 283 283 284 284 285 284 284 283 283 285 285 286 288 290 290 293 293 295 295 296 295 295
235 236 236 237 238 241 241 243 246 247 249 251 254 259 263 264 264 269 275 280 282 283 283 282 282 283 283 283 284 280 280 280 281 285 287 287 287 290 292 295 296 297 295 295
238 238 237 239 241 245 245 243 244 248 252 251 252 257 261 267 268 271 274 276 277 280 282 280 279 281 282 283 285 280 280 281 283 284 283 285 287 290 292 295 296 297 296 296
239 240 238 238 240 243 247 246 247 251 254 254 255 259 262 266 269 271 274 276 276 279 281 280 280 280 281 282 283 282 282 281 281 282 282 283 286 289 291 294 296 297 298 297
235 238 237 238 241 245 245 244 243 249 255 255 255 256 260 263 265 270 273 276 277 278 279 281 280 280 281 282 283 283 283 281 279 280 281 283 285 287 290 293 295 296 296 297
235 239 239 239 241 244 246 246 245 247 253 254 256 257 258 262 264 268 270 273 275 278 277 279 281 281 280 279 280 281 282 283 281 282 282 283 283 285 289 291 292 294 296 297
233 237 238 241 244 246 250 251 250 248 251 255 257 257 262 263 262 266 269 273 276 278 278 279 280 279 278 277 278 281 281 281 281 282 282 282 284 285 288 290 291 294 295 296
235 238 238 238 242 246 249 254 253 252 254 256 259 260 262 265 265 268 271 274 276 278 278 278 279 278 277 276 278 280 281 281 281 281 280 281 282 284 286 290 293 294 296 296
233 237 238 239 241 245 247 252 254 255 256 256 259 260 262 264 266 269 273 275 276 277 277 277 277 276 275 275 277 279 280 281 280 280 279 280 282 284 285 288 291 292 294 295
237 237 238 238 242 243 247 250 254 256 256 256 258 260 261 264 267 271 273 275 275 276 277 276 276 275 275 276 277 277 277 278 279 280 280 282 283 284 284 286 289 291 293 295
234 235 237 239 242 245 248 251 254 255 255 256 258 260 262 264 267 270 272 274 276 276 276 276 276 275 275 276 275 275 276 277 278 280 281 282 283 285 285 285 287 290 292 294
234 237 238 240 243 244 247 248 249 252 255 257 258 261 261 263 267 269 271 273 275 277 276 276 276 274 273 275 276 276 279 280 280 282 284 284 284 284 284 285 288 290 291 294